Time,TemperatureF,DewpointF,PressureIn,WindDirection,WindDirectionDegrees,WindSpeedMPH,WindSpeedGustMPH,Humidity,HourlyPrecipIn,Conditions,Clouds,dailyrainin,SoftwareType,DateUTC
2013-09-13 00:01:00,71.6,68.2,29.70,WSW,254,1.0,4.0,89,0.00,,,0.00,LWC V2.10 B1702,2013-09-13 04:01:00,
2013-09-13 00:06:00,71.4,68.0,29.70,ESE,114,4.0,5.0,89,0.00,,,0.00,LWC V2.10 B1702,2013-09-13 04:06:00,
2013-09-13 00:11:00,71.3,67.9,29.70,SW,220,4.0,4.0,89,0.00,,,0.00,LWC V2.10 B1702,2013-09-13 04:11:00,
2013-09-13 00:16:00,71.2,68.1,29.70,West,260,2.0,4.0,90,0.00,,,0.00,LWC V2.10 B1702,2013-09-13 04:16:00,
2013-09-13 00:21:00,71.1,68.0,29.70,West,270,4.0,4.0,90,0.00,,,0.00,LWC V2.10 B1702,2013-09-13 04:21:00,
2013-09-13 00:26:00,71.0,67.6,29.70,WNW,297,2.0,3.0,89,0.00,,,0.00,LWC V2.10 B1702,2013-09-13 04:26:00,
2013-09-13 00:31:00,71.0,67.6,29.70,WSW,244,4.0,4.0,89,0.00,,,0.00,LWC V2.10 B1702,2013-09-13 04:31:00,
2013-09-13 00:36:00,71.0,67.6,29.70,WSW,257,0.0,2.0,89,0.00,,,0.00,LWC V2.10 B1702,2013-09-13 04:36:00,
2013-09-13 00:41:00,71.0,67.9,29.70,WSW,255,0.0,2.0,90,0.00,,,0.00,LWC V2.10 B1702,2013-09-13 04:41:00,
2013-09-13 00:46:00,70.9,67.8,29.69,SW,236,2.0,3.0,90,0.00,,,0.00,LWC V2.10 B1702,2013-09-13 04:46:00,
2013-09-13 00:51:00,70.8,67.7,29.69,West,281,0.0,3.0,90,0.00,,,0.00,LWC V2.10 B1702,2013-09-13 04:51:00,
2013-09-13 00:56:00,70.7,67.6,29.69,West,261,1.0,5.0,90,0.00,,,0.00,LWC V2.10 B1702,2013-09-13 04:56:00,
2013-09-13 01:01:00,70.6,67.5,29.69,West,263,0.0,2.0,90,0.00,,,0.00,LWC V2.10 B1702,2013-09-13 05:01:00,
2013-09-13 01:06:00,70.5,67.4,29.69,South,182,3.0,3.0,90,0.00,,,0.00,LWC V2.10 B1702,2013-09-13 05:06:00,
2013-09-13 01:11:00,70.4,67.3,29.68,WSW,252,0.0,4.0,90,0.00,,,0.00,LWC V2.10 B1702,2013-09-13 05:11:00,
2013-09-13 01:16:00,70.3,67.2,29.68,West,261,0.0,3.0,90,0.00,,,0.00,LWC V2.10 B1702,2013-09-13 05:16:00,
2013-09-13 01:21:00,70.2,67.1,29.68,West,261,0.0,1.0,90,0.00,,,0.00,LWC V2.10 B1702,2013-09-13 05:21:00,
2013-09-13 01:26:00,70.1,67.0,29.69,WSW,249,0.0,3.0,90,0.00,,,0.00,LWC V2.10 B1702,2013-09-13 05:26:00,
2013-09-13 01:31:00,70.0,67.2,29.68,WSW,243,2.0,3.0,91,0.00,,,0.00,LWC V2.10 B1702,2013-09-13 05:31:00,
2013-09-13 01:36:00,69.9,67.1,29.68,WSW,247,0.0,0.0,91,0.00,,,0.00,LWC V2.10 B1702,2013-09-13 05:36:00,
2013-09-13 01:41:00,69.9,67.1,29.67,WSW,242,0.0,0.0,91,0.00,,,0.00,LWC V2.10 B1702,2013-09-13 05:41:00,
2013-09-13 01:46:00,69.8,67.0,29.67,South,189,0.0,1.0,91,0.00,,,0.00,LWC V2.10 B1702,2013-09-13 05:46:00,
2013-09-13 01:51:00,69.7,66.9,29.67,South,187,0.0,0.0,91,0.00,,,0.00,LWC V2.10 B1702,2013-09-13 05:51:00,
2013-09-13 01:56:00,69.6,66.8,29.67,SW,223,0.0,0.0,91,0.00,,,0.00,LWC V2.10 B1702,2013-09-13 05:56:00,
2013-09-13 02:01:00,69.6,66.8,29.67,WSW,248,0.0,0.0,91,0.00,,,0.00,LWC V2.10 B1702,2013-09-13 06:01:00,
2013-09-13 02:06:00,69.5,66.8,29.66,West,260,0.0,1.0,91,0.00,,,0.00,LWC V2.10 B1702,2013-09-13 06:06:00,
2013-09-13 02:11:00,69.6,66.8,29.66,South,184,0.0,2.0,91,0.00,,,0.00,LWC V2.10 B1702,2013-09-13 06:11:00,
2013-09-13 02:16:00,69.6,66.8,29.66,NNW,331,0.0,2.0,91,0.00,,,0.00,LWC V2.10 B1702,2013-09-13 06:16:00,
2013-09-13 02:21:00,69.6,66.8,29.66,WSW,243,0.0,1.0,91,0.00,,,0.00,LWC V2.10 B1702,2013-09-13 06:21:00,
2013-09-13 02:26:00,69.7,66.9,29.65,SSW,192,0.0,1.0,91,0.00,,,0.00,LWC V2.10 B1702,2013-09-13 06:26:00,
2013-09-13 02:31:00,69.7,66.9,29.65,WNW,286,0.0,1.0,91,0.00,,,0.00,LWC V2.10 B1702,2013-09-13 06:31:00,
2013-09-13 02:36:00,69.7,66.9,29.65,NW,320,0.0,0.0,91,0.00,,,0.00,LWC V2.10 B1702,2013-09-13 06:36:00,
2013-09-13 02:41:00,69.7,66.9,29.64,WNW,291,0.0,0.0,91,0.00,,,0.00,LWC V2.10 B1702,2013-09-13 06:41:00,
2013-09-13 02:46:00,69.7,66.9,29.64,NNW,338,0.0,2.0,91,0.00,,,0.00,LWC V2.10 B1702,2013-09-13 06:46:00,
2013-09-13 02:51:00,69.7,66.9,29.64,SW,215,0.0,1.0,91,0.00,,,0.00,LWC V2.10 B1702,2013-09-13 06:51:00,
2013-09-13 02:56:00,69.7,66.9,29.64,WNW,291,0.0,1.0,91,0.00,,,0.00,LWC V2.10 B1702,2013-09-13 06:56:00,
2013-09-13 03:01:00,69.7,66.9,29.64,SSW,202,0.0,1.0,91,0.00,,,0.00,LWC V2.10 B1702,2013-09-13 07:01:00,
2013-09-13 03:06:00,69.7,66.9,29.64,SW,236,0.0,0.0,91,0.00,,,0.00,LWC V2.10 B1702,2013-09-13 07:06:00,
2013-09-13 03:11:00,69.7,66.9,29.63,SW,236,0.0,0.0,91,0.00,,,0.00,LWC V2.10 B1702,2013-09-13 07:11:00,
2013-09-13 03:16:00,69.7,66.9,29.63,SW,233,0.0,0.0,91,0.00,,,0.00,LWC V2.10 B1702,2013-09-13 07:16:00,
2013-09-13 03:21:00,69.7,66.9,29.63,NW,320,0.0,4.0,91,0.00,,,0.00,LWC V2.10 B1702,2013-09-13 07:21:00,
2013-09-13 03:26:00,69.7,66.9,29.63,WNW,292,0.0,0.0,91,0.00,,,0.00,LWC V2.10 B1702,2013-09-13 07:26:00,
2013-09-13 03:31:00,69.7,67.3,29.63,SSW,213,0.0,0.0,92,0.00,,,0.00,LWC V2.10 B1702,2013-09-13 07:31:00,
2013-09-13 03:36:00,69.8,67.4,29.63,NNE,12,0.0,0.0,92,0.00,,,0.00,LWC V2.10 B1702,2013-09-13 07:36:00,
2013-09-13 03:41:00,69.8,67.4,29.63,West,267,0.0,0.0,92,0.00,,,0.00,LWC V2.10 B1702,2013-09-13 07:41:00,
2013-09-13 03:46:00,69.8,67.4,29.63,West,267,0.0,1.0,92,0.00,,,0.00,LWC V2.10 B1702,2013-09-13 07:46:00,
2013-09-13 03:51:00,69.9,67.5,29.63,WNW,284,0.0,1.0,92,0.00,,,0.00,LWC V2.10 B1702,2013-09-13 07:51:00,
2013-09-13 03:56:00,69.9,67.5,29.63,NNW,331,0.0,2.0,92,0.00,,,0.00,LWC V2.10 B1702,2013-09-13 07:56:00,
2013-09-13 04:01:00,69.9,67.5,29.62,SSE,167,0.0,0.0,92,0.00,,,0.00,LWC V2.10 B1702,2013-09-13 08:01:00,
2013-09-13 04:06:00,69.9,67.5,29.62,SSW,197,0.0,0.0,92,0.00,,,0.00,LWC V2.10 B1702,2013-09-13 08:06:00,
2013-09-13 04:11:00,69.9,67.5,29.62,WSW,248,0.0,2.0,92,0.00,,,0.00,LWC V2.10 B1702,2013-09-13 08:11:00,
2013-09-13 04:16:00,69.9,67.5,29.62,WNW,294,0.0,1.0,92,0.00,,,0.00,LWC V2.10 B1702,2013-09-13 08:16:00,
2013-09-13 04:21:00,69.9,67.5,29.62,SSW,210,0.0,1.0,92,0.00,,,0.00,LWC V2.10 B1702,2013-09-13 08:21:00,
2013-09-13 04:26:00,69.9,67.5,29.62,NW,319,0.0,0.0,92,0.00,,,0.00,LWC V2.10 B1702,2013-09-13 08:26:00,
2013-09-13 04:31:00,69.9,67.5,29.62,WNW,302,0.0,0.0,92,0.00,,,0.00,LWC V2.10 B1702,2013-09-13 08:31:00,
2013-09-13 04:36:00,69.9,67.5,29.62,East,97,0.0,2.0,92,0.00,,,0.00,LWC V2.10 B1702,2013-09-13 08:36:00,
2013-09-13 04:41:00,69.9,67.5,29.62,West,269,1.0,2.0,92,0.00,,,0.00,LWC V2.10 B1702,2013-09-13 08:41:00,
2013-09-13 04:46:00,69.9,67.5,29.62,West,267,0.0,1.0,92,0.00,,,0.00,LWC V2.10 B1702,2013-09-13 08:46:00,
2013-09-13 04:51:00,70.0,67.2,29.62,SW,230,0.0,1.0,91,0.00,,,0.00,LWC V2.10 B1702,2013-09-13 08:51:00,
2013-09-13 04:56:00,70.0,67.2,29.62,NW,321,0.0,1.0,91,0.00,,,0.00,LWC V2.10 B1702,2013-09-13 08:56:00,
2013-09-13 05:01:00,70.0,67.2,29.61,WNW,286,0.0,2.0,91,0.00,,,0.00,LWC V2.10 B1702,2013-09-13 09:01:00,
2013-09-13 05:06:00,70.0,67.2,29.61,SW,217,0.0,2.0,91,0.00,,,0.00,LWC V2.10 B1702,2013-09-13 09:06:00,
2013-09-13 05:11:00,70.1,67.3,29.61,SW,234,0.0,0.0,91,0.00,,,0.00,LWC V2.10 B1702,2013-09-13 09:11:00,
2013-09-13 05:16:00,70.1,67.3,29.61,North,5,0.0,2.0,91,0.00,,,0.00,LWC V2.10 B1702,2013-09-13 09:16:00,
2013-09-13 05:21:00,70.1,67.3,29.61,West,268,0.0,1.0,91,0.00,,,0.00,LWC V2.10 B1702,2013-09-13 09:21:00,
2013-09-13 05:26:00,70.1,67.7,29.61,SSW,194,0.0,0.0,92,0.00,,,0.00,LWC V2.10 B1702,2013-09-13 09:26:00,
2013-09-13 05:31:00,70.1,67.7,29.61,WSW,249,0.0,2.0,92,0.00,,,0.00,LWC V2.10 B1702,2013-09-13 09:31:00,
2013-09-13 05:36:00,70.1,67.7,29.61,West,268,1.0,6.0,92,0.00,,,0.00,LWC V2.10 B1702,2013-09-13 09:36:00,
2013-09-13 05:41:00,70.1,67.7,29.61,WSW,239,0.0,2.0,92,0.00,,,0.00,LWC V2.10 B1702,2013-09-13 09:41:00,
2013-09-13 05:46:00,70.1,67.7,29.61,West,269,0.0,5.0,92,0.00,,,0.00,LWC V2.10 B1702,2013-09-13 09:46:00,
2013-09-13 05:51:00,70.0,67.6,29.61,West,281,0.0,0.0,92,0.00,,,0.00,LWC V2.10 B1702,2013-09-13 09:51:00,
2013-09-13 05:56:00,70.0,67.6,29.61,SSE,164,0.0,0.0,92,0.00,,,0.00,LWC V2.10 B1702,2013-09-13 09:56:00,
2013-09-13 06:01:00,69.9,67.5,29.61,WNW,300,0.0,1.0,92,0.00,,,0.00,LWC V2.10 B1702,2013-09-13 10:01:00,
2013-09-13 06:06:00,69.9,67.5,29.61,WSW,253,0.0,1.0,92,0.00,,,0.00,LWC V2.10 B1702,2013-09-13 10:06:00,
2013-09-13 06:11:00,69.9,67.5,29.61,West,274,0.0,5.0,92,0.00,,,0.00,LWC V2.10 B1702,2013-09-13 10:11:00,
2013-09-13 06:16:00,69.9,67.5,29.61,West,266,1.0,2.0,92,0.00,,,0.00,LWC V2.10 B1702,2013-09-13 10:16:00,
2013-09-13 06:21:00,69.9,67.5,29.61,WSW,254,0.0,2.0,92,0.00,,,0.00,LWC V2.10 B1702,2013-09-13 10:21:00,
2013-09-13 06:26:00,69.9,67.5,29.61,NW,305,0.0,1.0,92,0.00,,,0.00,LWC V2.10 B1702,2013-09-13 10:26:00,
2013-09-13 06:31:00,69.9,67.5,29.61,NNW,348,0.0,0.0,92,0.00,,,0.00,LWC V2.10 B1702,2013-09-13 10:31:00,
2013-09-13 06:36:00,69.9,67.5,29.61,SW,228,0.0,1.0,92,0.00,,,0.00,LWC V2.10 B1702,2013-09-13 10:36:00,
2013-09-13 06:41:00,69.9,67.5,29.60,NW,307,0.0,0.0,92,0.00,,,0.00,LWC V2.10 B1702,2013-09-13 10:41:00,
2013-09-13 06:46:00,69.9,67.5,29.61,WNW,302,0.0,0.0,92,0.00,,,0.00,LWC V2.10 B1702,2013-09-13 10:46:00,
2013-09-13 06:51:00,69.8,67.4,29.61,WNW,302,0.0,0.0,92,0.00,,,0.00,LWC V2.10 B1702,2013-09-13 10:51:00,
2013-09-13 06:56:00,69.8,67.4,29.62,WNW,284,1.0,1.0,92,0.00,,,0.00,LWC V2.10 B1702,2013-09-13 10:56:00,
2013-09-13 07:01:00,69.8,67.4,29.62,SW,216,0.0,1.0,92,0.00,,,0.00,LWC V2.10 B1702,2013-09-13 11:01:00,
2013-09-13 07:06:00,69.8,67.4,29.62,West,279,0.0,0.0,92,0.00,,,0.00,LWC V2.10 B1702,2013-09-13 11:06:00,
2013-09-13 07:11:00,69.8,67.4,29.62,WNW,294,0.0,1.0,92,0.00,,,0.00,LWC V2.10 B1702,2013-09-13 11:11:00,
2013-09-13 07:16:00,69.7,67.3,29.62,SSW,194,0.0,0.0,92,0.00,,,0.00,LWC V2.10 B1702,2013-09-13 11:16:00,
2013-09-13 07:21:00,69.7,67.3,29.62,WNW,300,0.0,0.0,92,0.00,,,0.00,LWC V2.10 B1702,2013-09-13 11:21:00,
2013-09-13 07:26:00,69.7,67.3,29.62,WNW,298,0.0,1.0,92,0.00,,,0.00,LWC V2.10 B1702,2013-09-13 11:26:00,
2013-09-13 07:31:00,69.7,67.6,29.62,WNW,291,0.0,0.0,93,0.00,,,0.00,LWC V2.10 B1702,2013-09-13 11:31:00,
2013-09-13 07:36:00,69.7,67.6,29.62,West,278,0.0,0.0,93,0.00,,,0.00,LWC V2.10 B1702,2013-09-13 11:36:00,
2013-09-13 07:41:00,69.7,67.6,29.62,WSW,257,0.0,2.0,93,0.00,,,0.00,LWC V2.10 B1702,2013-09-13 11:41:00,
2013-09-13 07:46:00,69.7,67.6,29.62,West,269,0.0,1.0,93,0.00,,,0.00,LWC V2.10 B1702,2013-09-13 11:46:00,
2013-09-13 07:51:00,69.7,67.6,29.62,NNW,327,1.0,1.0,93,0.00,,,0.00,LWC V2.10 B1702,2013-09-13 11:51:00,
2013-09-13 07:56:00,69.7,67.6,29.62,WNW,290,0.0,1.0,93,0.00,,,0.00,LWC V2.10 B1702,2013-09-13 11:56:00,
2013-09-13 08:01:00,69.6,67.5,29.61,WNW,296,0.0,2.0,93,0.00,,,0.00,LWC V2.10 B1702,2013-09-13 12:01:00,
2013-09-13 08:06:00,69.6,67.5,29.61,WNW,295,0.0,0.0,93,0.00,,,0.00,LWC V2.10 B1702,2013-09-13 12:06:00,
2013-09-13 08:12:00,69.5,67.4,29.62,WNW,295,0.0,0.0,93,0.00,,,0.00,LWC V2.10 B1702,2013-09-13 12:12:00,
2013-09-13 08:17:00,69.5,67.4,29.62,WNW,295,0.0,0.0,93,0.00,,,0.00,LWC V2.10 B1702,2013-09-13 12:17:00,
2013-09-13 08:22:00,69.4,67.3,29.62,WNW,296,0.0,0.0,93,0.00,,,0.00,LWC V2.10 B1702,2013-09-13 12:22:00,
2013-09-13 08:27:00,69.4,67.3,29.62,WNW,296,0.0,0.0,93,0.00,,,0.00,LWC V2.10 B1702,2013-09-13 12:27:00,
2013-09-13 08:32:00,69.4,67.3,29.62,WNW,296,0.0,0.0,93,0.00,,,0.01,LWC V2.10 B1702,2013-09-13 12:32:00,
2013-09-13 08:37:00,69.4,67.3,29.62,WNW,296,0.0,0.0,93,0.00,,,0.01,LWC V2.10 B1702,2013-09-13 12:37:00,
2013-09-13 08:42:00,69.4,67.3,29.62,WNW,296,0.0,0.0,93,0.00,,,0.01,LWC V2.10 B1702,2013-09-13 12:42:00,
2013-09-13 08:47:00,69.4,67.3,29.62,WNW,296,0.0,0.0,93,0.00,,,0.01,LWC V2.10 B1702,2013-09-13 12:47:00,
2013-09-13 08:52:00,69.4,67.3,29.62,WNW,296,0.0,0.0,93,0.00,,,0.01,LWC V2.10 B1702,2013-09-13 12:52:00,
2013-09-13 08:57:00,69.4,67.3,29.61,WNW,296,0.0,0.0,93,0.00,,,0.01,LWC V2.10 B1702,2013-09-13 12:57:00,
2013-09-13 09:02:00,69.5,67.4,29.61,WNW,296,0.0,0.0,93,0.00,,,0.01,LWC V2.10 B1702,2013-09-13 13:02:00,
2013-09-13 09:07:00,69.5,67.4,29.61,WNW,296,0.0,0.0,93,0.00,,,0.01,LWC V2.10 B1702,2013-09-13 13:07:00,
2013-09-13 09:12:00,69.6,67.5,29.62,WNW,296,0.0,0.0,93,0.00,,,0.01,LWC V2.10 B1702,2013-09-13 13:12:00,
2013-09-13 09:17:00,69.7,67.9,29.62,West,270,0.0,0.0,94,0.00,,,0.01,LWC V2.10 B1702,2013-09-13 13:17:00,
2013-09-13 09:22:00,69.7,67.6,29.62,West,270,0.0,0.0,93,0.00,,,0.01,LWC V2.10 B1702,2013-09-13 13:22:00,
2013-09-13 09:27:00,69.7,67.6,29.62,West,270,0.0,0.0,93,0.00,,,0.01,LWC V2.10 B1702,2013-09-13 13:27:00,
2013-09-13 09:32:00,69.7,67.6,29.62,West,270,0.0,0.0,93,0.00,,,0.01,LWC V2.10 B1702,2013-09-13 13:32:00,
2013-09-13 09:37:00,69.7,67.6,29.62,West,270,0.0,0.0,93,0.00,,,0.02,LWC V2.10 B1702,2013-09-13 13:37:00,
2013-09-13 09:42:00,69.8,67.7,29.62,NW,323,0.0,0.0,93,0.00,,,0.02,LWC V2.10 B1702,2013-09-13 13:42:00,
2013-09-13 09:47:00,69.8,67.7,29.61,NW,323,0.0,0.0,93,0.00,,,0.02,LWC V2.10 B1702,2013-09-13 13:47:00,
2013-09-13 09:52:00,69.9,67.8,29.61,NW,323,0.0,0.0,93,0.00,,,0.02,LWC V2.10 B1702,2013-09-13 13:52:00,
2013-09-13 09:57:00,69.9,67.8,29.61,NW,323,0.0,0.0,93,0.00,,,0.02,LWC V2.10 B1702,2013-09-13 13:57:00,
2013-09-13 10:02:00,69.9,67.8,29.61,NW,323,0.0,0.0,93,0.00,,,0.02,LWC V2.10 B1702,2013-09-13 14:02:00,
2013-09-13 10:07:00,70.0,67.9,29.61,NW,323,0.0,0.0,93,0.00,,,0.02,LWC V2.10 B1702,2013-09-13 14:07:00,
2013-09-13 10:12:00,70.1,68.3,29.61,NW,323,0.0,0.0,94,0.00,,,0.02,LWC V2.10 B1702,2013-09-13 14:12:00,
2013-09-13 10:17:00,70.1,68.0,29.60,NW,323,0.0,0.0,93,0.00,,,0.02,LWC V2.10 B1702,2013-09-13 14:17:00,
2013-09-13 10:22:00,70.1,68.0,29.60,NW,323,0.0,0.0,93,0.00,,,0.02,LWC V2.10 B1702,2013-09-13 14:22:00,
2013-09-13 10:27:00,70.1,68.0,29.60,NW,323,0.0,0.0,93,0.00,,,0.02,LWC V2.10 B1702,2013-09-13 14:27:00,
2013-09-13 10:32:00,70.1,68.0,29.61,NW,323,0.0,0.0,93,0.00,,,0.02,LWC V2.10 B1702,2013-09-13 14:32:00,
2013-09-13 10:37:00,69.9,67.8,29.61,NW,323,0.0,0.0,93,0.00,,,0.02,LWC V2.10 B1702,2013-09-13 14:37:00,
2013-09-13 10:42:00,70.0,67.9,29.61,NW,323,0.0,0.0,93,0.00,,,0.02,LWC V2.10 B1702,2013-09-13 14:42:00,
2013-09-13 10:47:00,70.1,68.0,29.61,NW,323,0.0,0.0,93,0.00,,,0.02,LWC V2.10 B1702,2013-09-13 14:47:00,
2013-09-13 10:52:00,70.1,68.0,29.61,NW,321,0.0,0.0,93,0.00,,,0.02,LWC V2.10 B1702,2013-09-13 14:52:00,
2013-09-13 10:57:00,70.1,68.0,29.61,NW,321,0.0,0.0,93,0.00,,,0.02,LWC V2.10 B1702,2013-09-13 14:57:00,
2013-09-13 11:02:00,69.9,67.8,29.61,NW,321,0.0,0.0,93,0.00,,,0.02,LWC V2.10 B1702,2013-09-13 15:02:00,
2013-09-13 11:07:00,70.0,67.9,29.61,NW,321,0.0,0.0,93,0.00,,,0.02,LWC V2.10 B1702,2013-09-13 15:07:00,
2013-09-13 11:12:00,70.0,67.9,29.61,NW,321,0.0,1.0,93,0.00,,,0.02,LWC V2.10 B1702,2013-09-13 15:12:00,
2013-09-13 11:17:00,70.2,68.1,29.61,NW,321,0.0,0.0,93,0.00,,,0.02,LWC V2.10 B1702,2013-09-13 15:17:00,
2013-09-13 11:22:00,70.3,68.2,29.60,NW,323,0.0,0.0,93,0.00,,,0.02,LWC V2.10 B1702,2013-09-13 15:22:00,
2013-09-13 11:27:00,70.4,68.3,29.60,NW,323,0.0,0.0,93,0.00,,,0.02,LWC V2.10 B1702,2013-09-13 15:27:00,
2013-09-13 11:32:00,70.5,68.4,29.60,NW,323,0.0,0.0,93,0.00,,,0.02,LWC V2.10 B1702,2013-09-13 15:32:00,
2013-09-13 11:37:00,70.8,69.0,29.60,NW,323,0.0,0.0,94,0.00,,,0.02,LWC V2.10 B1702,2013-09-13 15:37:00,
2013-09-13 11:42:00,71.0,69.2,29.60,NW,323,0.0,0.0,94,0.00,,,0.02,LWC V2.10 B1702,2013-09-13 15:42:00,
2013-09-13 11:47:00,71.1,69.0,29.60,NW,323,0.0,0.0,93,0.00,,,0.02,LWC V2.10 B1702,2013-09-13 15:47:00,
2013-09-13 11:52:00,71.0,68.6,29.60,NW,318,0.0,0.0,92,0.00,,,0.02,LWC V2.10 B1702,2013-09-13 15:52:00,
2013-09-13 11:57:00,71.1,68.7,29.60,NW,317,0.0,1.0,92,0.00,,,0.02,LWC V2.10 B1702,2013-09-13 15:57:00,
2013-09-13 12:02:00,71.4,69.3,29.60,WNW,297,0.0,1.0,93,0.00,,,0.02,LWC V2.10 B1702,2013-09-13 16:02:00,
2013-09-13 12:07:00,71.4,68.9,29.60,NW,325,0.0,1.0,92,0.00,,,0.02,LWC V2.10 B1702,2013-09-13 16:07:00,
2013-09-13 12:12:00,71.3,68.8,29.60,WNW,294,0.0,0.0,92,0.00,,,0.02,LWC V2.10 B1702,2013-09-13 16:12:00,
2013-09-13 12:17:00,71.3,68.8,29.60,WNW,290,0.0,1.0,92,0.00,,,0.02,LWC V2.10 B1702,2013-09-13 16:17:00,
2013-09-13 12:22:00,71.3,68.8,29.60,NNW,335,0.0,1.0,92,0.00,,,0.02,LWC V2.10 B1702,2013-09-13 16:22:00,
2013-09-13 12:27:00,71.4,68.9,29.60,West,266,0.0,1.0,92,0.00,,,0.02,LWC V2.10 B1702,2013-09-13 16:27:00,
2013-09-13 12:32:00,71.6,69.1,29.60,NNW,328,0.0,1.0,92,0.00,,,0.02,LWC V2.10 B1702,2013-09-13 16:32:00,
2013-09-13 12:37:00,71.6,68.8,29.60,WNW,284,0.0,1.0,91,0.00,,,0.02,LWC V2.10 B1702,2013-09-13 16:37:00,
2013-09-13 12:42:00,71.5,68.7,29.60,NW,325,0.0,0.0,91,0.00,,,0.02,LWC V2.10 B1702,2013-09-13 16:42:00,
2013-09-13 12:47:00,71.3,68.5,29.60,West,267,0.0,1.0,91,0.00,,,0.02,LWC V2.10 B1702,2013-09-13 16:47:00,
2013-09-13 12:52:00,71.3,68.5,29.60,West,271,0.0,0.0,91,0.00,,,0.02,LWC V2.10 B1702,2013-09-13 16:52:00,
2013-09-13 12:57:00,71.5,69.0,29.59,NW,322,0.0,1.0,92,0.00,,,0.03,LWC V2.10 B1702,2013-09-13 16:57:00,
2013-09-13 13:02:00,72.0,69.5,29.59,WSW,240,0.0,1.0,92,0.00,,,0.03,LWC V2.10 B1702,2013-09-13 17:02:00,
2013-09-13 13:07:00,72.5,69.4,29.59,WSW,252,0.0,0.0,90,0.00,,,0.03,LWC V2.10 B1702,2013-09-13 17:07:00,
2013-09-13 13:12:00,72.7,69.6,29.59,NW,319,0.0,1.0,90,0.00,,,0.03,LWC V2.10 B1702,2013-09-13 17:12:00,
2013-09-13 13:17:00,73.0,69.6,29.59,WNW,300,0.0,1.0,89,0.00,,,0.03,LWC V2.10 B1702,2013-09-13 17:17:00,
2013-09-13 13:22:00,73.3,69.9,29.59,North,5,0.0,2.0,89,0.00,,,0.03,LWC V2.10 B1702,2013-09-13 17:22:00,
2013-09-13 13:27:00,73.9,70.4,29.58,NW,325,0.0,1.0,89,0.00,,,0.03,LWC V2.10 B1702,2013-09-13 17:27:00,
2013-09-13 13:32:00,74.1,69.6,29.58,West,269,0.0,2.0,86,0.00,,,0.03,LWC V2.10 B1702,2013-09-13 17:32:00,
2013-09-13 13:37:00,74.0,69.5,29.58,West,277,0.0,0.0,86,0.00,,,0.03,LWC V2.10 B1702,2013-09-13 17:37:00,
2013-09-13 13:42:00,74.0,69.5,29.58,West,277,0.0,0.0,86,0.00,,,0.03,LWC V2.10 B1702,2013-09-13 17:42:00,
2013-09-13 13:47:00,73.9,69.4,29.58,West,279,0.0,1.0,86,0.00,,,0.03,LWC V2.10 B1702,2013-09-13 17:47:00,
2013-09-13 13:52:00,74.1,69.6,29.58,NNW,333,1.0,2.0,86,0.00,,,0.03,LWC V2.10 B1702,2013-09-13 17:52:00,
2013-09-13 13:57:00,74.4,69.2,29.57,NNW,340,1.0,1.0,84,0.00,,,0.03,LWC V2.10 B1702,2013-09-13 17:57:00,
2013-09-13 14:02:00,74.5,69.3,29.57,NNW,339,0.0,2.0,84,0.00,,,0.03,LWC V2.10 B1702,2013-09-13 18:02:00,
2013-09-13 14:07:00,74.7,69.5,29.57,NW,324,1.0,1.0,84,0.00,,,0.03,LWC V2.10 B1702,2013-09-13 18:07:00,
2013-09-13 14:12:00,74.4,68.9,29.57,NW,314,0.0,0.0,83,0.00,,,0.03,LWC V2.10 B1702,2013-09-13 18:12:00,
2013-09-13 14:17:00,74.4,68.9,29.58,NW,315,0.0,1.0,83,0.00,,,0.03,LWC V2.10 B1702,2013-09-13 18:17:00,
2013-09-13 14:22:00,74.4,68.9,29.58,NW,315,0.0,0.0,83,0.00,,,0.03,LWC V2.10 B1702,2013-09-13 18:22:00,
2013-09-13 14:27:00,74.3,68.8,29.58,NW,315,0.0,0.0,83,0.00,,,0.03,LWC V2.10 B1702,2013-09-13 18:27:00,
2013-09-13 14:32:00,74.4,68.9,29.58,North,0,0.0,1.0,83,0.00,,,0.03,LWC V2.10 B1702,2013-09-13 18:32:00,
2013-09-13 14:37:00,74.4,67.8,29.58,NW,310,0.0,1.0,80,0.00,,,0.03,LWC V2.10 B1702,2013-09-13 18:37:00,
2013-09-13 14:42:00,74.4,68.2,29.59,WNW,297,0.0,1.0,81,0.00,,,0.03,LWC V2.10 B1702,2013-09-13 18:42:00,
2013-09-13 14:47:00,74.3,67.7,29.59,WNW,300,0.0,1.0,80,0.00,,,0.03,LWC V2.10 B1702,2013-09-13 18:47:00,
2013-09-13 14:52:00,74.2,67.6,29.58,WNW,288,0.0,1.0,80,0.00,,,0.03,LWC V2.10 B1702,2013-09-13 18:52:00,
2013-09-13 14:57:00,74.2,68.7,29.59,North,355,2.0,4.0,83,0.00,,,0.03,LWC V2.10 B1702,2013-09-13 18:57:00,
2013-09-13 15:02:00,74.1,68.9,29.59,WSW,244,1.0,3.0,84,0.00,,,0.03,LWC V2.10 B1702,2013-09-13 19:02:00,
2013-09-13 15:07:00,74.1,69.3,29.58,NNW,343,1.0,2.0,85,0.00,,,0.03,LWC V2.10 B1702,2013-09-13 19:07:00,
2013-09-13 15:12:00,74.1,69.6,29.59,SSW,212,0.0,1.0,86,0.00,,,0.03,LWC V2.10 B1702,2013-09-13 19:12:00,
2013-09-13 15:17:00,74.2,69.7,29.59,SW,234,0.0,2.0,86,0.00,,,0.03,LWC V2.10 B1702,2013-09-13 19:17:00,
2013-09-13 15:22:00,74.3,69.8,29.59,West,275,0.0,2.0,86,0.00,,,0.03,LWC V2.10 B1702,2013-09-13 19:22:00,
2013-09-13 15:27:00,74.3,69.5,29.59,SW,230,2.0,3.0,85,0.00,,,0.03,LWC V2.10 B1702,2013-09-13 19:27:00,
2013-09-13 15:32:00,74.2,69.4,29.58,West,265,0.0,0.0,85,0.00,,,0.03,LWC V2.10 B1702,2013-09-13 19:32:00,
2013-09-13 15:37:00,74.1,69.6,29.59,SW,221,0.0,0.0,86,0.00,,,0.03,LWC V2.10 B1702,2013-09-13 19:37:00,
2013-09-13 15:42:00,74.1,68.9,29.59,West,265,0.0,0.0,84,0.00,,,0.03,LWC V2.10 B1702,2013-09-13 19:42:00,
2013-09-13 15:47:00,74.0,69.2,29.58,West,272,0.0,2.0,85,0.00,,,0.03,LWC V2.10 B1702,2013-09-13 19:47:00,
2013-09-13 15:52:00,74.1,69.3,29.59,WNW,292,0.0,1.0,85,0.00,,,0.03,LWC V2.10 B1702,2013-09-13 19:52:00,
2013-09-13 15:57:00,74.1,68.9,29.59,WSW,254,1.0,5.0,84,0.00,,,0.03,LWC V2.10 B1702,2013-09-13 19:57:00,
2013-09-13 16:02:00,73.9,69.1,29.59,WNW,302,0.0,2.0,85,0.00,,,0.03,LWC V2.10 B1702,2013-09-13 20:02:00,
2013-09-13 16:07:00,74.0,69.2,29.59,WNW,296,1.0,4.0,85,0.00,,,0.03,LWC V2.10 B1702,2013-09-13 20:07:00,
2013-09-13 16:12:00,73.9,69.1,29.59,West,263,0.0,3.0,85,0.00,,,0.03,LWC V2.10 B1702,2013-09-13 20:12:00,
2013-09-13 16:17:00,73.8,69.0,29.59,WSW,250,2.0,4.0,85,0.00,,,0.03,LWC V2.10 B1702,2013-09-13 20:17:00,
2013-09-13 16:22:00,73.5,68.7,29.59,WSW,243,3.0,7.0,85,0.00,,,0.03,LWC V2.10 B1702,2013-09-13 20:22:00,
2013-09-13 16:27:00,73.3,68.5,29.59,West,266,0.0,2.0,85,0.00,,,0.03,LWC V2.10 B1702,2013-09-13 20:27:00,
2013-09-13 16:32:00,73.0,68.6,29.59,West,271,1.0,3.0,86,0.00,,,0.03,LWC V2.10 B1702,2013-09-13 20:32:00,
2013-09-13 16:37:00,72.9,68.5,29.59,SW,234,1.0,1.0,86,0.00,,,0.03,LWC V2.10 B1702,2013-09-13 20:37:00,
2013-09-13 16:42:00,72.8,68.4,29.59,WSW,250,3.0,4.0,86,0.00,,,0.03,LWC V2.10 B1702,2013-09-13 20:42:00,
2013-09-13 16:47:00,72.6,68.2,29.59,NW,305,1.0,2.0,86,0.00,,,0.03,LWC V2.10 B1702,2013-09-13 20:47:00,
2013-09-13 16:52:00,72.4,68.3,29.59,West,267,1.0,7.0,87,0.00,,,0.03,LWC V2.10 B1702,2013-09-13 20:52:00,
2013-09-13 16:57:00,72.4,68.3,29.59,NNW,346,0.0,0.0,87,0.00,,,0.03,LWC V2.10 B1702,2013-09-13 20:57:00,
2013-09-13 17:02:00,72.4,68.3,29.59,WSW,242,1.0,3.0,87,0.00,,,0.03,LWC V2.10 B1702,2013-09-13 21:02:00,
2013-09-13 17:07:00,72.4,68.0,29.60,WNW,293,1.0,3.0,86,0.00,,,0.03,LWC V2.10 B1702,2013-09-13 21:07:00,
2013-09-13 17:12:00,72.3,67.9,29.59,West,269,0.0,1.0,86,0.00,,,0.03,LWC V2.10 B1702,2013-09-13 21:12:00,
2013-09-13 17:17:00,72.2,67.8,29.59,NNW,340,1.0,3.0,86,0.00,,,0.03,LWC V2.10 B1702,2013-09-13 21:17:00,
2013-09-13 17:22:00,72.1,67.7,29.59,West,259,1.0,1.0,86,0.00,,,0.03,LWC V2.10 B1702,2013-09-13 21:22:00,
2013-09-13 17:27:00,71.8,67.7,29.59,WSW,246,0.0,0.0,87,0.00,,,0.03,LWC V2.10 B1702,2013-09-13 21:27:00,
2013-09-13 17:32:00,71.6,67.5,29.60,NW,304,3.0,3.0,87,0.00,,,0.03,LWC V2.10 B1702,2013-09-13 21:32:00,
2013-09-13 17:37:00,71.4,67.3,29.60,WNW,293,2.0,3.0,87,0.00,,,0.03,LWC V2.10 B1702,2013-09-13 21:37:00,
2013-09-13 17:42:00,71.2,67.5,29.60,WSW,250,0.0,2.0,88,0.00,,,0.03,LWC V2.10 B1702,2013-09-13 21:42:00,
2013-09-13 17:47:00,71.1,67.4,29.60,WNW,284,0.0,3.0,88,0.00,,,0.03,LWC V2.10 B1702,2013-09-13 21:47:00,
2013-09-13 17:52:00,71.0,67.3,29.60,WSW,242,2.0,4.0,88,0.00,,,0.03,LWC V2.10 B1702,2013-09-13 21:52:00,
2013-09-13 17:57:00,71.0,67.3,29.60,West,281,0.0,4.0,88,0.00,,,0.03,LWC V2.10 B1702,2013-09-13 21:57:00,
2013-09-13 18:02:00,70.9,67.2,29.60,WSW,250,0.0,2.0,88,0.00,,,0.03,LWC V2.10 B1702,2013-09-13 22:02:00,
2013-09-13 18:07:00,70.8,67.1,29.60,NW,321,0.0,3.0,88,0.00,,,0.03,LWC V2.10 B1702,2013-09-13 22:07:00,
2013-09-13 18:12:00,70.8,67.1,29.61,West,281,0.0,1.0,88,0.00,,,0.03,LWC V2.10 B1702,2013-09-13 22:12:00,
2013-09-13 18:17:00,70.8,67.1,29.61,West,262,3.0,3.0,88,0.00,,,0.03,LWC V2.10 B1702,2013-09-13 22:17:00,
2013-09-13 18:22:00,70.7,66.6,29.61,WNW,295,7.0,7.0,87,0.00,,,0.03,LWC V2.10 B1702,2013-09-13 22:22:00,
2013-09-13 18:27:00,70.6,66.9,29.61,NNW,344,0.0,4.0,88,0.00,,,0.03,LWC V2.10 B1702,2013-09-13 22:27:00,
2013-09-13 18:32:00,70.4,66.7,29.61,West,269,0.0,2.0,88,0.00,,,0.03,LWC V2.10 B1702,2013-09-13 22:32:00,
2013-09-13 18:37:00,70.3,66.2,29.61,West,281,0.0,0.0,87,0.00,,,0.03,LWC V2.10 B1702,2013-09-13 22:37:00,
2013-09-13 18:42:00,70.1,66.0,29.61,WNW,302,0.0,0.0,87,0.00,,,0.03,LWC V2.10 B1702,2013-09-13 22:42:00,
2013-09-13 18:47:00,70.0,65.9,29.62,NW,313,0.0,1.0,87,0.00,,,0.03,LWC V2.10 B1702,2013-09-13 22:47:00,
2013-09-13 18:52:00,69.9,65.8,29.62,North,0,1.0,2.0,87,0.00,,,0.03,LWC V2.10 B1702,2013-09-13 22:52:00,
2013-09-13 18:57:00,69.7,65.6,29.62,NW,317,0.0,0.0,87,0.00,,,0.03,LWC V2.10 B1702,2013-09-13 22:57:00,
2013-09-13 19:02:00,69.6,65.9,29.62,WNW,289,0.0,2.0,88,0.00,,,0.03,LWC V2.10 B1702,2013-09-13 23:02:00,
2013-09-13 19:07:00,69.5,65.8,29.62,NW,326,0.0,2.0,88,0.00,,,0.03,LWC V2.10 B1702,2013-09-13 23:07:00,
2013-09-13 19:12:00,69.4,65.7,29.62,NW,326,0.0,0.0,88,0.00,,,0.03,LWC V2.10 B1702,2013-09-13 23:12:00,
2013-09-13 19:17:00,69.4,66.0,29.63,WSW,251,0.0,1.0,89,0.00,,,0.03,LWC V2.10 B1702,2013-09-13 23:17:00,
2013-09-13 19:22:00,69.3,65.9,29.63,West,269,0.0,0.0,89,0.00,,,0.03,LWC V2.10 B1702,2013-09-13 23:22:00,
2013-09-13 19:27:00,69.3,65.9,29.63,West,269,0.0,0.0,89,0.00,,,0.03,LWC V2.10 B1702,2013-09-13 23:27:00,
2013-09-13 19:32:00,69.3,65.9,29.64,WNW,298,1.0,5.0,89,0.00,,,0.03,LWC V2.10 B1702,2013-09-13 23:32:00,
2013-09-13 19:37:00,69.5,65.8,29.65,NNE,22,0.0,3.0,88,0.00,,,0.03,LWC V2.10 B1702,2013-09-13 23:37:00,
2013-09-13 19:42:00,69.6,65.9,29.65,North,10,1.0,2.0,88,0.00,,,0.03,LWC V2.10 B1702,2013-09-13 23:42:00,
2013-09-13 19:47:00,69.7,65.6,29.66,North,11,0.0,3.0,87,0.00,,,0.03,LWC V2.10 B1702,2013-09-13 23:47:00,
2013-09-13 19:52:00,69.7,65.6,29.66,NNE,14,0.0,3.0,87,0.00,,,0.03,LWC V2.10 B1702,2013-09-13 23:52:00,
2013-09-13 19:57:00,69.7,65.3,29.67,North,5,0.0,0.0,86,0.00,,,0.03,LWC V2.10 B1702,2013-09-13 23:57:00,
2013-09-13 20:02:00,69.7,65.3,29.67,North,355,0.0,3.0,86,0.00,,,0.03,LWC V2.10 B1702,2013-09-14 00:02:00,
2013-09-13 20:07:00,69.7,65.3,29.67,NNE,15,1.0,1.0,86,0.00,,,0.03,LWC V2.10 B1702,2013-09-14 00:07:00,
2013-09-13 20:12:00,69.7,65.3,29.67,North,0,0.0,1.0,86,0.00,,,0.03,LWC V2.10 B1702,2013-09-14 00:12:00,
2013-09-13 20:17:00,69.5,65.1,29.68,NE,34,0.0,2.0,86,0.00,,,0.03,LWC V2.10 B1702,2013-09-14 00:17:00,
2013-09-13 20:22:00,69.4,65.0,29.68,NW,320,0.0,5.0,86,0.00,,,0.03,LWC V2.10 B1702,2013-09-14 00:22:00,
2013-09-13 20:27:00,69.2,64.5,29.68,North,355,2.0,3.0,85,0.00,,,0.03,LWC V2.10 B1702,2013-09-14 00:27:00,
2013-09-13 20:32:00,69.0,64.3,29.68,NNE,17,0.0,4.0,85,0.00,,,0.03,LWC V2.10 B1702,2013-09-14 00:32:00,
2013-09-13 20:37:00,68.8,63.8,29.69,North,5,0.0,1.0,84,0.00,,,0.03,LWC V2.10 B1702,2013-09-14 00:37:00,
2013-09-13 20:42:00,68.7,64.0,29.69,NNE,23,0.0,4.0,85,0.00,,,0.03,LWC V2.10 B1702,2013-09-14 00:42:00,
2013-09-13 20:47:00,68.5,63.8,29.69,NNE,26,0.0,1.0,85,0.00,,,0.03,LWC V2.10 B1702,2013-09-14 00:47:00,
2013-09-13 20:52:00,68.4,63.7,29.69,NNE,16,0.0,1.0,85,0.00,,,0.03,LWC V2.10 B1702,2013-09-14 00:52:00,
2013-09-13 20:57:00,68.3,63.6,29.69,NNE,26,0.0,2.0,85,0.00,,,0.03,LWC V2.10 B1702,2013-09-14 00:57:00,
2013-09-13 21:02:00,68.3,63.6,29.70,NNE,27,0.0,1.0,85,0.00,,,0.03,LWC V2.10 B1702,2013-09-14 01:02:00,
2013-09-13 21:07:00,68.2,63.5,29.70,NNE,28,0.0,1.0,85,0.00,,,0.03,LWC V2.10 B1702,2013-09-14 01:07:00,
2013-09-13 21:12:00,68.1,63.4,29.70,NNE,28,0.0,0.0,85,0.00,,,0.03,LWC V2.10 B1702,2013-09-14 01:12:00,
2013-09-13 21:17:00,68.1,63.7,29.70,NE,38,0.0,0.0,86,0.00,,,0.03,LWC V2.10 B1702,2013-09-14 01:17:00,
2013-09-13 21:22:00,68.1,63.7,29.70,NE,37,0.0,1.0,86,0.00,,,0.03,LWC V2.10 B1702,2013-09-14 01:22:00,
2013-09-13 21:27:00,68.0,63.6,29.70,NNW,345,1.0,2.0,86,0.00,,,0.03,LWC V2.10 B1702,2013-09-14 01:27:00,
2013-09-13 21:32:00,67.9,63.5,29.70,NE,34,0.0,2.0,86,0.00,,,0.03,LWC V2.10 B1702,2013-09-14 01:32:00,
2013-09-13 21:37:00,67.7,63.4,29.70,North,5,1.0,2.0,86,0.00,,,0.03,LWC V2.10 B1702,2013-09-14 01:37:00,
2013-09-13 21:42:00,67.6,63.3,29.70,NE,36,0.0,2.0,86,0.00,,,0.03,LWC V2.10 B1702,2013-09-14 01:42:00,
2013-09-13 21:47:00,67.5,62.8,29.70,NE,38,2.0,3.0,85,0.00,,,0.03,LWC V2.10 B1702,2013-09-14 01:47:00,
2013-09-13 21:52:00,67.4,62.7,29.70,North,355,1.0,3.0,85,0.00,,,0.03,LWC V2.10 B1702,2013-09-14 01:52:00,
2013-09-13 21:57:00,67.3,62.6,29.70,NNE,30,0.0,0.0,85,0.00,,,0.03,LWC V2.10 B1702,2013-09-14 01:57:00,
2013-09-13 22:02:00,67.1,62.4,29.70,NE,34,0.0,2.0,85,0.00,,,0.03,LWC V2.10 B1702,2013-09-14 02:02:00,
2013-09-13 22:07:00,67.0,62.7,29.71,NNE,32,2.0,2.0,86,0.00,,,0.03,LWC V2.10 B1702,2013-09-14 02:07:00,
2013-09-13 22:12:00,66.8,62.5,29.71,NNE,25,1.0,1.0,86,0.00,,,0.03,LWC V2.10 B1702,2013-09-14 02:12:00,
2013-09-13 22:17:00,66.7,62.4,29.71,NNE,13,0.0,0.0,86,0.00,,,0.03,LWC V2.10 B1702,2013-09-14 02:17:00,
2013-09-13 22:22:00,66.5,62.2,29.71,NNE,13,0.0,0.0,86,0.00,,,0.03,LWC V2.10 B1702,2013-09-14 02:22:00,
2013-09-13 22:27:00,66.4,62.4,29.71,NNE,13,0.0,0.0,87,0.00,,,0.03,LWC V2.10 B1702,2013-09-14 02:27:00,
2013-09-13 22:32:00,66.2,62.2,29.71,NNE,13,0.0,0.0,87,0.00,,,0.03,LWC V2.10 B1702,2013-09-14 02:32:00,
2013-09-13 22:37:00,66.0,62.0,29.71,North,11,0.0,0.0,87,0.00,,,0.03,LWC V2.10 B1702,2013-09-14 02:37:00,
2013-09-13 22:42:00,65.9,61.9,29.72,North,11,0.0,1.0,87,0.00,,,0.03,LWC V2.10 B1702,2013-09-14 02:42:00,
2013-09-13 22:47:00,65.7,62.0,29.71,North,11,0.0,0.0,88,0.00,,,0.03,LWC V2.10 B1702,2013-09-14 02:47:00,
2013-09-13 22:52:00,65.6,61.9,29.71,NNE,23,0.0,0.0,88,0.00,,,0.03,LWC V2.10 B1702,2013-09-14 02:52:00,
2013-09-13 22:57:00,65.5,61.5,29.72,NNE,23,0.0,1.0,87,0.00,,,0.03,LWC V2.10 B1702,2013-09-14 02:57:00,
2013-09-13 23:02:00,65.3,61.3,29.72,NNE,23,0.0,1.0,87,0.00,,,0.03,LWC V2.10 B1702,2013-09-14 03:02:00,
2013-09-13 23:07:00,65.2,61.5,29.71,NNE,22,0.0,1.0,88,0.00,,,0.03,LWC V2.10 B1702,2013-09-14 03:07:00,
2013-09-13 23:12:00,65.1,61.5,29.71,NNE,20,0.0,1.0,88,0.00,,,0.03,LWC V2.10 B1702,2013-09-14 03:12:00,
2013-09-13 23:17:00,65.0,61.4,29.72,NNE,20,0.0,0.0,88,0.00,,,0.03,LWC V2.10 B1702,2013-09-14 03:17:00,
2013-09-13 23:22:00,64.8,61.2,29.72,NNE,19,0.0,1.0,88,0.00,,,0.03,LWC V2.10 B1702,2013-09-14 03:22:00,
2013-09-13 23:27:00,64.7,60.7,29.72,North,5,0.0,0.0,87,0.00,,,0.03,LWC V2.10 B1702,2013-09-14 03:27:00,
2013-09-13 23:32:00,64.6,60.6,29.72,NNE,29,0.0,0.0,87,0.00,,,0.03,LWC V2.10 B1702,2013-09-14 03:32:00,
2013-09-13 23:37:00,64.4,60.4,29.72,NNE,30,0.0,2.0,87,0.00,,,0.03,LWC V2.10 B1702,2013-09-14 03:37:00,
2013-09-13 23:42:00,64.3,60.3,29.72,NNE,26,0.0,1.0,87,0.00,,,0.03,LWC V2.10 B1702,2013-09-14 03:42:00,
2013-09-13 23:47:00,64.1,60.1,29.72,NNE,26,0.0,2.0,87,0.00,,,0.03,LWC V2.10 B1702,2013-09-14 03:47:00,
2013-09-13 23:52:00,63.9,59.9,29.72,NNE,26,0.0,3.0,87,0.00,,,0.03,LWC V2.10 B1702,2013-09-14 03:52:00,
2013-09-13 23:57:00,63.8,59.9,29.73,NE,51,1.0,4.0,87,0.00,,,0.03,LWC V2.10 B1702,2013-09-14 03:57:00,